Dewpoint
53 53 53 54 54 54 54 55 55 56 55 55 56 56 56 57 57 58 58 58 59 59 59 60 60 60 60 61 61 61 61 54 55 50 44 45 56 62 66 68 68 67 65 46 34 26 24 22 19 19 26 30 35 35 41 42 40 41 31 26 23 23 19 19 22 24 24 22 21 22 22 21 20 23 25 23 22 26 29 29 31 32 32 33 34 36 40 43
52 52 52 53 53 53 53 53 54 55 55 55 55 56 56 56 57 57 58 58 58 59 59 60 60 60 61 60 61 61 58 54 50 44 45 60 64 67 68 67 66 64 58 36 31 25 23 22 22 18 22 21 39 31 38 37 38 31 30 21 16 23 21 22 22 22 22 21 21 22 21 21 22 23 22 19 19 24 25 27 30 30 31 33 34 35 39 40
53 53 53 53 53 53 53 54 53 54 55 55 55 56 56 56 56 57 58 58 58 59 59 60 60 60 60 61 60 59 57 57 48 45 50 64 66 67 67 66 64 63 45 39 38 28 26 23 23 19 26 21 26 29 35 33 35 32 27 25 21 25 22 23 23 23 24 22 21 21 23 20 23 22 31 21 19 22 24 27 29 29 30 33 35 36 38 40
53 53 53 53 52 52 53 54 53 53 54 55 55 55 56 56 57 57 58 58 58 59 59 60 60 60 60 60 60 57 57 47 36 41 56 63 66 67 66 65 65 60 52 48 41 29 28 26 24 22 28 23 25 32 27 31 27 31 26 23 22 17 20 22 24 25 23 22 22 22 22 20 23 22 22 21 19 26 28 29 27 28 30 32 35 37 38 39
52 53 53 53 53 53 53 53 54 54 54 54 55 55 55 56 57 57 57 58 58 58 59 59 60 60 60 60 59 55 49 24 34 49 54 64 65 66 65 65 62 55 43 38 32 30 27 25 23 27 25 16 27 26 22 28 30 31 20 21 20 23 23 25 25 25 24 23 22 21 19 20 24 23 22 21 19 23 27 29 29 29 30 32 34 37 39 39
52 52 53 53 53 53 53 53 53 54 54 54 55 55 55 56 57 57 57 57 58 58 59 59 60 60 60 60 54 55 38 19 31 48 63 62 64 64 63 62 61 53 41 34 30 29 27 23 21 24 22 18 21 21 21 24 28 24 25 23 24 22 20 24 27 26 23 23 22 22 23 24 22 22 23 22 20 26 30 30 29 30 31 32 35 37 38 39
53 52 53 53 53 53 53 53 53 54 54 54 55 55 55 56 56 57 57 57 58 58 59 59 60 60 60 59 54 47 37 29 46 51 58 63 63 63 63 62 57 44 37 29 28 28 29 24 20 24 24 21 20 23 23 24 27 26 22 23 24 25 24 26 26 27 23 22 23 23 25 23 23 21 24 27 30 29 29 29 29 30 31 33 34 36 37 38
53 53 53 52 52 53 52 53 53 53 54 54 55 55 55 56 56 57 57 57 58 58 59 59 59 60 59 53 47 40 42 32 48 55 59 60 62 60 54 50 42 43 31 30 30 28 28 24 22 26 21 20 22 22 24 23 24 26 24 25 25 25 25 26 26 24 25 24 24 26 24 23 23 22 22 28 29 29 29 29 29 30 31 32 33 35 37 37
53 54 54 53 52 53 52 53 53 53 54 54 55 55 55 56 56 56 57 57 58 58 58 59 59 59 58 53 44 27 21 49 54 55 58 57 52 43 47 40 39 33 33 31 32 34 29 27 28 25 21 23 24 22 24 22 23 26 24 25 25 25 25 24 26 25 25 26 27 24 24 24 24 24 21 27 28 29 29 29 29 30 30 31 32 34 35 36
53 54 54 53 52 52 52 53 53 53 52 54 54 55 55 55 56 56 57 57 58 58 58 59 59 59 53 51 39 16 34 53 55 54 52 49 45 42 41 44 40 37 33 33 31 31 31 31 31 33 30 26 26 24 26 24 22 25 25 25 24 24 25 25 24 24 25 26 25 23 24 23 23 23 20 29 28 29 29 29 29 29 30 31 32 33 34 35
53 53 53 53 53 53 54 54 53 54 53 53 53 54 54 55 56 56 57 57 58 58 58 59 59 56 51 47 33 24 50 55 52 48 48 48 43 43 43 43 41 43 38 37 37 35 34 36 38 34 31 23 26 24 24 24 26 26 25 24 24 24 24 25 24 24 24 24 24 24 23 24 21 26 21 27 28 29 28 28 28 29 29 31 33 34 36 36
54 54 54 53 53 53 54 54 54 54 53 53 54 54 54 55 56 56 56 57 58 58 58 58 59 55 51 39 34 29 50 51 51 46 46 47 48 48 46 43 43 45 38 38 44 45 41 40 34 25 22 29 23 25 25 25 25 25 25 23 24 24 24 24 23 24 24 23 24 23 22 21 22 19 24 28 28 28 28 27 28 28 30 32 33 34 35 36
56 55 54 54 53 53 53 54 54 54 54 53 53 54 54 55 56 56 57 57 58 58 58 58 58 56 47 30 38 46 46 48 47 46 45 47 45 44 47 47 45 40 41 41 42 43 45 39 32 27 31 27 27 24 28 27 25 26 25 24 23 25 24 24 24 25 23 24 23 22 20 22 21 21 27 28 27 27 27 27 28 29 29 31 32 34 35 36
56 56 55 55 55 54 53 53 54 55 56 54 54 53 54 55 56 56 57 57 58 58 58 59 54 53 44 40 44 47 51 53 48 45 46 48 43 44 47 46 46 42 47 43 44 44 42 39 37 32 35 27 26 34 26 26 26 24 25 24 24 23 24 26 25 23 23 24 22 22 22 21 22 25 27 27 27 26 26 26 27 28 29 30 33 34 34 34
56 56 56 56 55 55 54 53 54 55 56 55 54 53 54 54 56 57 57 57 57 58 59 58 54 52 36 32 48 50 61 52 44 45 47 43 45 44 42 41 39 39 38 43 41 42 36 41 35 27 26 29 31 27 26 26 24 25 22 24 30 22 27 27 25 23 22 22 23 21 24 20 20 22 27 27 27 26 26 26 27 27 28 29 32 33 33 33
57 56 56 56 55 54 53 54 55 56 55 55 55 54 55 56 57 58 58 58 58 58 55 54 55 45 35 33 45 58 50 43 44 46 44 50 47 43 42 42 42 39 35 32 37 35 34 37 30 32 27 27 26 26 27 27 30 26 24 27 27 26 26 23 24 24 24 21 23 20 20 22 20 23 25 26 26 26 25 25 26 27 28 30 31 33 33 33
57 56 56 56 55 54 53 54 56 56 55 55 55 55 55 56 57 58 58 58 57 57 53 50 47 44 27 36 47 45 44 47 51 48 44 47 46 42 39 40 37 36 37 36 41 36 34 30 34 31 35 26 26 30 25 26 26 28 27 23 29 25 25 23 25 24 27 21 20 21 20 20 21 24 24 26 26 26 25 25 26 26 27 29 30 32 33 33
57 56 56 56 55 54 55 55 56 56 56 55 55 55 55 56 57 58 56 57 55 54 55 55 49 32 31 37 27 33 48 46 48 47 47 43 45 39 39 35 38 35 37 33 34 31 34 30 30 29 30 29 26 28 25 22 25 26 26 24 24 27 25 25 24 23 21 22 20 20 20 20 21 25 25 25 26 26 25 25 26 26 27 28 29 32 33 33
57 56 56 56 56 55 55 55 55 56 56 55 56 56 57 57 57 54 54 54 46 33 27 36 34 16 18 28 39 47 48 49 47 45 42 42 45 43 41 37 38 32 32 31 31 31 34 36 35 28 26 28 25 25 25 26 29 28 30 27 30 26 26 24 24 25 22 21 21 21 20 20 20 21 26 26 26 25 25 25 26 26 26 28 28 30 33 34
57 57 56 56 56 55 55 55 55 56 56 54 54 55 51 48 44 45 49 50 48 29 25 33 35 34 39 40 44 44 49 45 40 44 45 47 40 39 36 35 39 35 31 31 33 33 35 30 28 27 27 27 27 26 26 26 28 27 28 28 26 27 27 27 25 24 25 24 22 21 22 22 23 23 24 26 26 26 25 24 26 26 27 28 28 29 32 32
57 57 56 56 56 56 55 54 55 56 56 54 53 53 45 40 25 18 45 48 48 46 42 38 36 32 32 41 46 42 37 38 41 43 43 46 40 34 33 34 34 32 33 34 31 33 31 29 30 30 28 27 28 27 26 25 25 25 26 27 25 29 24 27 27 25 26 24 26 26 25 26 26 27 26 26 26 25 25 25 26 26 27 28 29 29 32 33
57 57 57 56 56 56 55 55 55 56 56 54 53 52 50 49 48 45 43 37 43 47 46 43 41 38 41 42 43 43 40 36 41 43 46 42 36 31 32 33 32 29 34 34 33 30 30 28 29 31 31 29 28 27 26 25 26 26 25 25 27 25 29 29 25 26 26 27 24 26 26 26 26 27 28 25 25 25 26 25 25 26 27 28 29 30 33 34
57 57 57 57 56 56 55 56 56 56 53 53 51 52 50 51 51 50 48 43 43 45 46 44 41 39 37 40 42 40 36 34 35 42 41 43 37 34 33 31 31 31 35 31 30 30 29 31 31 31 31 30 29 28 27 28 29 26 26 25 24 29 26 24 29 27 25 26 26 27 26 27 28 28 29 27 26 26 27 27 29 29 27 28 29 31 33 33
57 57 57 56 56 55 55 56 57 55 52 52 52 52 52 52 54 52 46 39 37 39 43 44 42 39 36 36 40 38 34 34 37 40 44 39 32 38 32 31 31 31 30 30 30 30 28 30 32 31 31 29 28 28 27 25 24 29 29 28 28 29 29 26 26 27 28 29 29 26 28 28 29 28 29 29 29 28 30 31 31 32 31 31 32 33 33 33
57 57 57 56 56 56 55 56 54 52 52 51 51 52 53 52 52 53 43 36 35 37 44 44 44 43 38 45 43 36 35 35 34 40 42 38 34 33 32 32 30 30 30 30 29 31 30 31 34 31 32 30 31 27 28 29 26 27 31 28 27 29 27 30 33 30 29 29 33 29 26 27 31 30 29 29 29 27 29 29 29 30 30 32 31 32 34 34
57 56 56 56 56 55 56 52 52 53 51 49 50 51 52 52 52 52 43 34 28 34 37 35 43 36 42 38 41 39 34 31 38 42 41 39 42 33 33 31 30 29 29 30 29 31 29 32 33 32 32 32 31 29 31 30 26 26 27 33 28 27 29 30 31 29 26 25 30 31 26 26 29 29 30 28 27 27 28 29 29 30 30 31 31 32 33 33
57 56 56 56 56 56 52 48 53 52 48 49 51 52 52 52 54 52 22 26 18 34 32 43 36 37 44 38 36 34 26 30 42 41 39 44 36 44 30 30 30 30 30 31 29 27 30 29 31 32 32 31 30 28 32 29 28 26 32 38 35 31 30 30 31 30 29 31 33 30 30 27 28 30 31 30 27 27 27 27 29 29 31 30 31 32 32 32
57 57 56 56 56 55 51 52 52 50 48 50 52 52 53 54 50 48 28 14 14 35 35 38 39 43 42 37 37 30 33 38 34 38 39 43 39 36 32 29 30 30 29 31 26 35 29 30 32 31 31 30 29 31 33 31 28 30 34 36 34 33 33 33 31 30 29 28 29 28 30 27 27 29 28 28 27 27 27 27 28 28 30 31 31 31 32 31
57 57 56 56 56 56 54 53 51 50 50 52 53 52 55 53 49 36 24 11 37 37 41 36 45 40 38 37 34 35 35 35 32 36 42 40 41 34 31 31 30 30 29 30 26 33 36 32 33 33 31 29 33 34 37 32 28 32 36 36 36 35 34 32 29 29 28 27 27 28 30 26 27 30 27 27 27 28 28 27 27 28 29 30 30 31 31 31
57 56 56 56 55 55 54 54 53 52 53 53 55 54 50 46 39 29 22 13 35 32 38 39 38 36 35 33 32 35 33 35 36 37 36 36 37 37 34 37 32 30 30 31 31 35 38 34 36 35 32 32 34 33 34 36 32 37 35 33 32 30 29 28 28 27 27 26 28 29 30 29 26 27 28 27 27 27 28 27 27 28 29 30 30 31 31 31
57 56 56 55 53 53 53 51 52 54 54 54 54 51 47 43 30 25 21 20 26 36 36 35 36 37 33 33 32 34 35 35 35 36 35 35 34 34 34 31 35 32 29 30 30 33 33 34 33 34 35 34 34 32 34 35 36 35 31 29 30 29 26 26 24 26 23 25 27 30 30 30 26 26 29 28 28 28 27 27 26 27 27 29 30 30 30 30
57 56 56 55 53 54 51 50 53 54 54 54 52 49 40 32 37 21 17 13 18 26 33 33 36 35 33 34 34 33 33 34 35 35 34 33 33 31 31 29 31 28 28 28 29 30 29 30 35 35 37 34 33 33 31 34 34 34 31 30 27 24 23 19 21 20 22 24 22 26 29 27 28 28 28 27 28 28 27 28 27 27 27 28 29 30 30 30
56 56 56 55 54 53 53 55 54 54 53 52 50 47 35 32 23 30 22 18 16 34 34 37 36 36 35 34 33 34 35 32 35 34 35 34 33 33 34 33 33 30 25 29 29 28 29 31 34 35 33 36 35 30 29 29 31 31 30 29 27 22 20 18 16 18 21 22 26 24 28 27 27 28 29 30 30 28 28 29 28 28 27 28 29 30 30 30
56 56 55 55 54 53 54 55 54 54 53 51 47 43 37 26 24 34 25 21 28 37 37 36 37 36 35 32 35 34 32 35 34 34 34 33 33 32 33 34 34 32 34 29 27 29 25 26 31 33 30 36 34 32 31 31 32 31 31 30 29 27 20 18 20 21 21 22 21 23 24 23 24 27 28 28 28 29 29 29 29 28 28 28 29 29 30 29
56 56 56 55 54 55 55 55 54 53 53 50 45 39 30 25 30 28 30 27 26 36 35 38 36 35 34 34 36 35 35 33 35 34 34 33 31 32 31 31 33 33 34 28 29 27 28 27 32 34 34 35 34 35 35 32 30 30 32 32 28 29 29 25 23 20 17 17 16 17 24 25 27 29 30 29 28 28 29 28 28 28 28 29 29 29 29 29
56 55 56 54 53 54 56 56 55 54 52 47 41 35 30 28 26 31 30 31 26 29 36 37 35 33 32 34 35 35 37 34 35 34 33 33 33 32 33 33 32 33 31 27 30 27 28 28 33 34 35 34 34 35 34 33 28 30 32 29 30 33 30 27 24 23 20 19 25 19 23 25 26 24 26 27 27 27 27 27 27 27 28 28 28 29 29 28
53 55 51 53 53 55 56 56 55 53 51 45 39 33 36 35 35 34 33 30 28 25 36 31 34 33 33 33 32 35 35 36 34 33 31 34 32 34 33 34 35 34 33 31 32 35 30 31 33 32 32 33 33 35 35 34 34 31 27 30 33 34 32 28 24 20 18 21 23 23 24 24 22 24 25 25 25 26 26 26 26 27 28 27 28 28 29 28
53 52 52 51 53 55 56 56 54 52 49 43 36 36 39 36 39 33 33 31 32 32 35 29 30 35 33 33 34 34 35 32 33 32 31 34 31 36 34 34 35 33 33 35 30 34 34 29 31 33 33 33 34 35 34 34 34 31 31 34 30 26 25 27 26 24 22 22 21 21 23 25 24 25 23 24 24 25 25 27 26 27 27 27 28 28 28 28
53 51 47 51 54 55 55 56 53 50 45 40 36 35 39 38 39 36 32 28 33 31 28 30 28 35 33 34 34 35 35 32 33 32 30 31 30 35 34 35 35 34 34 34 33 34 33 30 29 31 32 33 32 33 30 30 33 33 33 31 32 29 23 25 28 22 23 19 17 22 20 23 25 25 24 24 24 25 25 26 26 26 27 27 28 28 28 27
51 47 46 52 55 55 55 55 50 47 43 36 36 36 40 38 39 39 35 31 32 30 29 29 31 30 34 34 36 34 35 34 33 33 32 32 32 36 35 36 36 35 34 35 34 37 32 31 28 28 31 32 29 30 31 32 31 29 28 28 29 26 29 29 25 26 23 18 17 21 23 23 26 26 25 25 24 24 25 26 27 27 27 27 28 28 28 27
51 47 47 53 54 55 54 51 45 41 41 42 40 38 38 37 39 39 37 35 36 43 33 31 31 29 32 33 35 36 35 34 34 33 32 32 32 28 36 36 37 35 35 36 35 35 32 30 29 28 29 29 30 32 33 33 33 31 30 29 30 28 26 24 26 27 24 23 23 18 23 26 29 27 25 25 25 25 25 26 27 27 27 28 28 28 28 28
48 42 45 53 54 54 50 43 42 44 42 39 37 39 38 41 41 39 38 37 37 36 44 40 36 33 32 33 34 35 35 34 34 33 32 31 34 32 35 37 36 37 35 33 34 36 35 33 31 28 29 30 31 33 35 34 33 33 31 30 32 30 29 27 24 25 24 28 23 20 18 25 29 31 29 27 26 25 26 27 27 28 27 28 28 28 28 27
46 44 51 53 54 52 47 42 43 42 40 41 41 41 43 41 39 41 38 38 36 37 38 40 39 36 35 32 35 35 35 33 34 33 33 33 33 34 37 37 39 38 36 34 36 36 36 32 31 31 31 31 33 34 33 33 32 31 30 30 31 30 30 29 28 27 27 24 24 20 22 25 25 30 28 28 28 29 26 27 27 28 28 28 28 29 28 27
47 46 48 54 55 53 45 37 38 40 40 41 41 40 42 41 40 40 41 38 36 36 35 38 40 39 38 39 37 34 37 32 35 35 33 35 33 38 38 38 38 37 36 35 34 37 33 33 33 31 29 28 29 31 30 31 31 30 30 32 32 31 31 31 29 28 25 28 27 25 24 26 27 27 28 27 26 27 26 27 27 28 29 29 29 29 28 28
45 45 45 48 53 51 42 43 41 40 40 39 39 38 39 40 42 41 40 40 39 37 37 35 38 41 40 42 40 41 39 33 31 36 35 35 34 38 38 39 39 37 37 38 38 38 34 33 32 30 28 26 26 26 26 28 29 31 29 31 32 31 31 30 28 29 27 29 28 26 26 28 29 28 25 26 26 25 27 28 28 29 29 29 29 29 29 28
43 37 43 45 48 48 47 47 45 42 40 39 38 39 39 38 40 42 42 41 41 40 38 38 38 41 40 40 38 39 39 40 36 33 35 33 35 34 36 37 37 37 39 39 39 37 33 33 33 32 30 28 29 28 30 31 29 28 29 30 31 32 32 31 30 29 28 29 27 28 28 28 29 26 26 25 26 25 26 29 29 29 29 29 30 30 29 28
44 40 38 35 43 44 42 43 42 43 40 41 36 37 37 38 39 40 43 40 42 41 40 39 39 38 38 39 39 38 40 39 39 36 34 34 35 35 38 38 38 38 38 38 39 33 31 32 33 33 32 32 32 30 31 31 29 30 29 29 31 31 31 31 30 29 31 29 27 29 29 29 29 27 27 26 26 25 27 27 29 30 30 30 30 30 31 28
39 41 43 42 37 34 38 39 41 40 42 41 38 38 36 36 37 37 42 42 41 42 41 41 41 40 39 38 38 36 37 38 38 37 37 35 34 34 35 37 36 37 37 35 37 33 31 30 32 33 32 34 34 33 32 31 30 30 30 30 30 31 31 31 31 31 31 29 28 30 30 30 29 27 27 27 26 25 25 26 28 30 30 29 30 30 29 28
43 41 42 43 39 39 40 39 40 40 39 41 39 38 36 36 36 38 39 39 41 40 41 37 39 40 40 40 39 37 37 34 35 38 36 34 35 32 32 34 36 37 35 33 34 32 32 30 32 33 32 33 33 33 32 31 30 29 30 30 30 30 30 31 31 31 31 30 31 30 29 30 30 29 28 27 27 26 26 28 31 31 30 29 29 30 29 29
39 41 36 41 40 39 40 40 40 40 38 41 37 38 38 37 36 37 39 40 36 39 42 39 38 40 40 40 39 37 37 37 36 35 37 37 34 34 34 35 33 33 34 32 32 27 33 30 34 32 32 32 33 33 31 31 31 30 30 30 30 30 30 31 31 31 31 31 31 31 30 29 32 32 30 28 29 29 28 27 27 31 31 30 29 30 30 29
43 42 43 39 37 37 38 39 39 39 37 37 35 36 38 38 37 38 38 41 39 37 40 39 39 39 40 40 40 39 40 39 38 37 37 39 35 36 36 34 35 33 33 33 32 32 33 31 32 32 31 31 33 32 32 32 31 31 31 31 30 29 29 30 30 31 30 30 30 31 30 29 30 31 30 29 28 27 27 27 27 30 31 30 30 29 30 30
42 43 43 41 36 39 38 36 38 38 34 36 36 36 37 38 39 40 37 40 42 41 41 41 41 41 39 40 39 40 41 41 40 40 38 38 40 39 39 38 38 36 33 32 33 33 33 32 32 32 31 31 32 33 33 32 32 31 31 33 33 31 30 30 31 31 31 31 30 29 29 30 31 30 28 28 28 29 27 28 28 30 31 31 30 30 30 30